Tracking 25656 objects as of 21-May-2022
HD Live streaming from Space Station
objects crossing your sky now

SPACEBEENZ-15

Track SPACEBEENZ-15 now!
10-day predictions


NORAD ID: 52395
Int'l Code: 2022-047B
Perigee: 528.2 km
Apogee: 539.0 km
Inclination: 97.4 °
Period: 95.2 minutes
Semi major axis: 6904 km
RCS: Unknown
Launch date: May 2, 2022
Source: New Zealand (NZ)
Launch site: Rocket Lab Launch Complex (RLLC)
aabbcc
Your satellite tracking list
Your tracking list is empty




NASA's NSSDC Master Catalog

Two Line Element Set (TLE):
1 52395U 22047B   22141.49872382  .00019830  00000-0  11175-2 0  9990
2 52395  97.4493 227.0103 0007818 262.2566  97.7777 15.13208347  4271
Source of the keplerian elements: AFSPC